Bookmark and Share
Track history (hours):
 

M/T Goviken

Last reported at 2014-Apr-17 18:33 UTC. Time now 2014-Apr-24 14:07 UTC.
Position N 36°14' W 007°42'.

Length 88 m; draft 6.5 m.

Type: Ship (hazmat cat A). MMSI: 215389000.

NotesDate/timePositionNaut miles runAvg speedWind from/ knotsBaromVisibWave heightAir tempDewpointWater temp
2014-Apr-17 18:33N 36°14' W 007°42'3010.0
2014-Apr-17 15:33N 36°36' W 007°17'1010.3
2014-Apr-17 14:33N 36°44' W 007°08'  
2014-Apr-12 06:19N 36°39' W 008°04'7 8.4
2014-Apr-12 05:32N 36°37' W 008°12'10 8.4
2014-Apr-12 04:23N 36°36' W 008°24'7 7.9
2014-Apr-12 03:30N 36°34' W 008°33'17 8.0
2014-Apr-12 01:19N 36°30' W 008°54'7 7.7
2014-Apr-12 00:22N 36°28' W 009°02'7 7.7
2014-Apr-11 23:31N 36°29' W 009°11'26 8.0
2014-Apr-11 20:16N 36°45' W 009°36'32 8.0
2014-Apr-11 16:16N 37°17' W 009°37'2 2.1
2014-Apr-11 15:05N 37°20' W 009°36'4 6.5
2014-Apr-11 14:30N 37°23' W 009°36'8 7.3
2014-Apr-11 13:25N 37°31' W 009°34'9 8.0
2014-Apr-11 12:16N 37°40' W 009°32'6 7.7
2014-Apr-11 11:33N 37°46' W 009°31'8 7.7
2014-Apr-11 10:33N 37°53' W 009°30'8 7.7
2014-Apr-11 09:33N 38°01' W 009°30'8 7.9
2014-Apr-11 08:33N 38°09' W 009°28'8 8.1
2014-Apr-11 07:33N 38°17' W 009°27'17 8.1
2014-Apr-11 05:28N 38°34' W 009°24'8 8.7
2014-Apr-11 04:33N 38°40' W 009°18'4 3.5
2014-Apr-11 03:31N 38°41' W 009°14'0 0.0
2014-Apr-11 02:31N 38°41' W 009°14'0 0.0
2014-Apr-11 01:31N 38°41' W 009°14'0 0.0
2014-Apr-11 00:31N 38°41' W 009°14'0 0.0
2014-Apr-10 23:31N 38°41' W 009°14'0 0.0
2014-Apr-10 22:31N 38°41' W 009°14'0 0.0
2014-Apr-10 21:31N 38°41' W 009°14'0 0.0
2014-Apr-10 20:31N 38°41' W 009°14'0 0.0
2014-Apr-10 19:31N 38°41' W 009°14'0 0.0
2014-Apr-10 18:31N 38°41' W 009°14'0 0.0
2014-Apr-10 17:31N 38°41' W 009°14'2 1.6
2014-Apr-10 16:33N 38°41' W 009°12'0 0.0
2014-Apr-10 15:33N 38°41' W 009°12'0 0.0
2014-Apr-10 14:33N 38°41' W 009°12'0 0.0
2014-Apr-10 13:33N 38°41' W 009°12'0 0.0
2014-Apr-10 12:33N 38°41' W 009°12'0 0.0
2014-Apr-10 11:33N 38°41' W 009°12'0 0.0
2014-Apr-10 10:33N 38°41' W 009°12'0 0.0
2014-Apr-10 09:33N 38°41' W 009°12'0 0.0
2014-Apr-10 08:33N 38°41' W 009°12'0 0.0
2014-Apr-10 07:33N 38°41' W 009°12'0 0.0
2014-Apr-10 06:33N 38°41' W 009°12'0 0.0
2014-Apr-10 05:33N 38°41' W 009°12'0 0.0
2014-Apr-10 04:33N 38°41' W 009°12'0 0.0
2014-Apr-10 03:33N 38°41' W 009°12'0 0.0
2014-Apr-10 02:33N 38°41' W 009°12'0 0.0
2014-Apr-10 01:33N 38°41' W 009°12'0 0.0
2014-Apr-10 00:33N 38°41' W 009°12'0 0.0
2014-Apr-09 23:33N 38°41' W 009°12'6 5.9
2014-Apr-09 22:34N 38°40' W 009°19'5 4.9
2014-Apr-09 21:29N 38°40' W 009°26'8 8.9
2014-Apr-09 20:33N 38°37' W 009°36'12 9.5
2014-Apr-09 19:14N 38°36' W 009°52'910.2
2014-Apr-09 18:24N 38°35' W 010°03'  

Dump ship's entire track history

sailing weather and tide predictions

M/T Goviken — 9HA2718 — position and weather